TimeCDT,TemperatureF,Dew PointF,Humidity,Sea Level PressureIn,VisibilityMPH,Wind Direction,Wind SpeedMPH,Gust SpeedMPH,PrecipitationIn,Events,Conditions,WindDirDegrees,DateUTC
12:15 AM,68.2,64.8,89,29.97,10.0,NNE,8.1,-,N/A,,Clear,30,2013-06-19 05:15:00
12:35 AM,68.0,65.3,91,29.97,10.0,NE,5.8,-,N/A,,Clear,50,2013-06-19 05:35:00
12:55 AM,67.6,65.3,92,29.98,10.0,Calm,Calm,-,N/A,,Clear,0,2013-06-19 05:55:00
1:15 AM,67.1,64.8,92,29.98,10.0,Calm,Calm,-,N/A,,Clear,0,2013-06-19 06:15:00
1:35 AM,66.7,64.8,93,29.98,7.0,North,4.6,-,N/A,,Clear,360,2013-06-19 06:35:00
1:55 AM,66.7,64.8,93,29.98,7.0,NNE,4.6,-,N/A,,Clear,20,2013-06-19 06:55:00
2:15 AM,66.6,64.6,93,29.98,7.0,Calm,Calm,-,N/A,,Clear,0,2013-06-19 07:15:00
2:35 AM,65.7,63.7,93,29.97,5.0,Calm,Calm,-,N/A,,Clear,0,2013-06-19 07:35:00
2:55 AM,65.5,63.7,94,29.97,5.0,ESE,3.5,-,N/A,,Clear,120,2013-06-19 07:55:00
3:15 AM,64.4,62.6,94,29.98,5.0,South,3.5,-,N/A,,Clear,190,2013-06-19 08:15:00
3:35 AM,64.8,63.3,95,29.98,4.0,Calm,Calm,-,N/A,,Clear,0,2013-06-19 08:35:00
3:55 AM,64.6,62.8,94,29.99,5.0,Calm,Calm,-,N/A,,Clear,0,2013-06-19 08:55:00
4:15 AM,63.9,62.4,95,29.99,4.0,Calm,Calm,-,N/A,,Clear,0,2013-06-19 09:15:00
4:35 AM,63.5,61.9,94,29.99,3.0,Calm,Calm,-,N/A,,Clear,0,2013-06-19 09:35:00
4:55 AM,63.9,62.2,94,30.00,4.0,Calm,Calm,-,N/A,,Clear,0,2013-06-19 09:55:00
5:15 AM,62.8,61.3,95,30.00,3.0,Calm,Calm,-,N/A,,Clear,0,2013-06-19 10:15:00
5:35 AM,63.7,62.2,95,30.01,2.5,Calm,Calm,-,N/A,,Clear,0,2013-06-19 10:35:00
5:55 AM,63.3,61.9,95,30.01,1.5,West,5.8,-,N/A,,Mist,270,2013-06-19 10:55:00
6:15 AM,64.0,62.8,96,30.02,1.2,Calm,Calm,-,N/A,,Mist,0,2013-06-19 11:15:00
6:35 AM,65.7,64.4,96,30.02,2.0,Calm,Calm,-,N/A,,Clear,0,2013-06-19 11:35:00
6:55 AM,67.1,65.5,95,30.03,5.0,North,3.5,-,N/A,,Clear,360,2013-06-19 11:55:00
7:15 AM,68.2,65.3,90,30.03,7.0,NNE,4.6,-,N/A,,Clear,30,2013-06-19 12:15:00
7:35 AM,69.3,65.8,89,30.04,7.0,NNE,5.8,-,N/A,,Clear,30,2013-06-19 12:35:00
7:55 AM,70.3,66.2,87,30.05,7.0,NE,6.9,-,N/A,,Clear,40,2013-06-19 12:55:00
8:15 AM,72.3,66.6,82,30.05,10.0,NE,4.6,-,N/A,,Clear,40,2013-06-19 13:15:00
8:35 AM,74.3,66.2,76,30.05,10.0,ENE,4.6,-,N/A,,Clear,60,2013-06-19 13:35:00
8:55 AM,75.0,64.9,71,30.05,10.0,NE,5.8,-,N/A,,Clear,50,2013-06-19 13:55:00
9:15 AM,76.6,64.6,66,30.05,10.0,NE,5.8,-,N/A,,Clear,50,2013-06-19 14:15:00
9:35 AM,77.9,63.0,60,30.05,10.0,East,5.8,-,N/A,,Clear,80,2013-06-19 14:35:00
9:55 AM,78.8,63.0,58,30.06,10.0,NE,4.6,-,N/A,,Clear,50,2013-06-19 14:55:00
10:15 AM,79.7,63.3,57,30.06,10.0,NE,5.8,-,N/A,,Clear,40,2013-06-19 15:15:00
10:35 AM,80.8,62.4,53,30.06,10.0,NE,4.6,-,N/A,,Clear,40,2013-06-19 15:35:00
10:55 AM,81.5,62.2,52,30.06,10.0,Calm,Calm,-,N/A,,Clear,0,2013-06-19 15:55:00
11:15 AM,82.0,61.9,50,30.06,10.0,Calm,Calm,-,N/A,,Clear,0,2013-06-19 16:15:00
11:35 AM,82.4,61.7,49,30.06,10.0,WNW,3.5,-,N/A,,Clear,290,2013-06-19 16:35:00
11:55 AM,83.7,60.3,45,30.06,10.0,ENE,3.5,-,N/A,,Clear,70,2013-06-19 16:55:00
12:15 PM,83.5,60.1,45,30.05,10.0,ENE,6.9,-,N/A,,Clear,60,2013-06-19 17:15:00
12:35 PM,84.6,59.4,42,30.05,10.0,NE,5.8,-,N/A,,Clear,50,2013-06-19 17:35:00
12:55 PM,85.5,59.0,41,30.05,10.0,NNE,3.5,-,N/A,,Clear,30,2013-06-19 17:55:00
1:15 PM,86.0,58.5,39,30.05,10.0,ENE,3.5,-,N/A,,Clear,60,2013-06-19 18:15:00
1:35 PM,87.1,56.5,35,30.04,10.0,NNE,4.6,-,N/A,,Clear,30,2013-06-19 18:35:00
1:55 PM,86.7,59.0,39,30.04,10.0,NE,8.1,-,N/A,,Clear,40,2013-06-19 18:55:00
2:15 PM,87.6,59.7,39,30.03,10.0,SE,4.6,-,N/A,,Scattered Clouds,130,2013-06-19 19:15:00
2:35 PM,86.0,60.1,41,30.03,10.0,NNE,6.9,-,N/A,,Mostly Cloudy,30,2013-06-19 19:35:00
2:55 PM,85.3,60.3,43,30.03,10.0,ENE,4.6,-,N/A,,Overcast,70,2013-06-19 19:55:00
3:15 PM,85.1,60.1,43,30.02,10.0,Calm,Calm,-,N/A,,Mostly Cloudy,0,2013-06-19 20:15:00
3:35 PM,89.8,61.0,38,30.02,10.0,ENE,6.9,-,N/A,,Mostly Cloudy,70,2013-06-19 20:35:00
3:55 PM,86.5,61.7,43,30.02,10.0,East,6.9,-,N/A,,Mostly Cloudy,80,2013-06-19 20:55:00
4:15 PM,89.1,60.4,38,30.02,10.0,ENE,6.9,-,N/A,,Scattered Clouds,70,2013-06-19 21:15:00
4:35 PM,86.9,59.0,39,30.02,10.0,East,4.6,-,N/A,,Mostly Cloudy,80,2013-06-19 21:35:00
4:55 PM,88.2,61.9,41,30.02,10.0,ESE,8.1,-,N/A,,Mostly Cloudy,110,2013-06-19 21:55:00
5:15 PM,85.1,63.0,47,30.02,10.0,SE,4.6,-,N/A,,Scattered Clouds,130,2013-06-19 22:15:00
5:35 PM,84.7,63.7,49,30.02,10.0,SE,4.6,-,N/A,,Clear,130,2013-06-19 22:35:00
5:55 PM,83.7,63.5,51,30.02,10.0,ESE,4.6,-,N/A,,Clear,120,2013-06-19 22:55:00
6:15 PM,85.1,62.8,47,30.02,10.0,SE,4.6,-,N/A,,Clear,130,2013-06-19 23:15:00
6:35 PM,85.6,60.8,43,30.02,10.0,ESE,5.8,-,N/A,,Clear,120,2013-06-19 23:35:00
6:55 PM,84.7,62.1,46,30.02,10.0,SE,3.5,-,N/A,,Clear,130,2013-06-19 23:55:00
7:15 PM,83.5,62.6,49,30.02,10.0,ESE,3.5,-,N/A,,Clear,120,2013-06-20 00:15:00
7:35 PM,82.4,64.6,55,30.02,10.0,Calm,Calm,-,N/A,,Clear,0,2013-06-20 00:35:00
7:55 PM,81.0,66.0,60,30.02,7.0,East,3.5,-,N/A,,Clear,100,2013-06-20 00:55:00
8:15 PM,79.5,66.9,65,30.03,10.0,ESE,3.5,-,N/A,,Clear,120,2013-06-20 01:15:00
8:35 PM,78.3,67.8,70,30.02,10.0,East,3.5,-,N/A,,Clear,100,2013-06-20 01:35:00
8:55 PM,75.9,67.5,75,30.03,10.0,ESE,3.5,-,N/A,,Clear,110,2013-06-20 01:55:00
9:15 PM,74.7,67.6,79,30.03,10.0,Calm,Calm,-,N/A,,Clear,0,2013-06-20 02:15:00
9:35 PM,73.9,67.5,80,30.05,10.0,Calm,Calm,-,N/A,,Clear,0,2013-06-20 02:35:00
9:55 PM,74.1,66.9,78,30.05,10.0,Calm,Calm,-,N/A,,Clear,0,2013-06-20 02:55:00
10:15 PM,73.4,66.4,79,30.06,10.0,Calm,Calm,-,N/A,,Clear,0,2013-06-20 03:15:00
10:35 PM,71.8,66.6,84,30.06,10.0,Calm,Calm,-,N/A,,Clear,0,2013-06-20 03:35:00
10:55 PM,72.7,67.8,85,30.07,10.0,Calm,Calm,-,N/A,,Clear,0,2013-06-20 03:55:00
11:15 PM,72.0,66.2,82,30.07,10.0,Calm,Calm,-,N/A,,Clear,0,2013-06-20 04:15:00
11:35 PM,72.3,66.2,81,30.07,10.0,Calm,Calm,-,N/A,,Clear,0,2013-06-20 04:35:00
11:55 PM,71.6,66.9,85,30.08,10.0,Calm,Calm,-,N/A,,Clear,0,2013-06-20 04:55:00